User: anonymous   Login
Location: Eferding
(48.3167°N, 14.0167°E)
Time: 20:47:16
(UTC+00:00)
Language:

COBE Rocket - Orbit

View from above orbital plane
View from above orbital plane
View from above satellite
View from above satellite

Ground track
Ground track

The orbit data is extracted from the following two-line orbital elements,

1 20323U 89089B   20020.47699729  .00000033  00000-0  17717-4 0  9994
2 20323  97.0673 190.3151 0071195 341.1718  18.6848 14.48330539591833
Epoch (UTC): 20 January 2020 11:26:52
Eccentricity: 0.0071195
inclination: 97.0673°
perigee height: 680 km
apogee height: 782 km
right ascension of ascending node: 190.3151°
argument of perigee: 341.1718°
revolutions per day: 14.48330539
mean anomaly at epoch: 18.6848°
orbit number at epoch: 59183

The dashed part of the orbit path shows where the satellite is in the earth's shadow,  

DLR